Time,TemperatureF,DewpointF,PressureIn,WindDirection,WindDirectionDegrees,WindSpeedMPH,WindSpeedGustMPH,Humidity,HourlyPrecipIn,Conditions,Clouds,dailyrainin,SoftwareType,DateUTC
2013-07-26 00:00:00,79.0,9.5,30.15,ESE,112,0.0,0.0,7,0.00,,,-99.99,Weather View 32 v70,2013-07-26 04:00:00,
2013-07-26 00:10:00,79.0,6.1,30.14,ESE,112,0.0,0.0,6,0.00,,,-99.99,Weather View 32 v70,2013-07-26 04:10:00,
2013-07-26 00:20:00,78.0,-9.2,30.14,ESE,112,0.0,0.0,3,0.00,,,-99.99,Weather View 32 v70,2013-07-26 04:20:00,
2013-07-26 00:30:00,78.0,-30.3,30.14,ESE,112,0.0,0.0,1,0.00,,,-99.99,Weather View 32 v70,2013-07-26 04:30:00,
2013-07-26 00:40:00,79.0,-29.7,30.14,ESE,112,0.0,0.0,1,0.00,,,-99.99,Weather View 32 v70,2013-07-26 04:40:00,
2013-07-26 00:50:00,79.0,-29.7,30.13,ESE,112,0.0,0.0,1,0.00,,,-99.99,Weather View 32 v70,2013-07-26 04:50:00,
2013-07-26 01:00:00,78.0,-30.3,30.13,ESE,112,0.0,0.0,1,0.00,,,-99.99,Weather View 32 v70,2013-07-26 05:00:00,
2013-07-26 01:10:00,79.0,-29.7,30.14,ESE,112,1.0,3.0,1,0.00,,,-99.99,Weather View 32 v70,2013-07-26 05:10:00,
2013-07-26 01:20:00,79.0,-29.7,30.13,ESE,112,2.0,5.0,1,0.00,,,-99.99,Weather View 32 v70,2013-07-26 05:20:00,
2013-07-26 01:30:00,80.0,-29.1,30.12,ESE,112,1.0,5.0,1,0.00,,,-99.99,Weather View 32 v70,2013-07-26 05:30:00,
2013-07-26 01:40:00,80.0,-29.1,30.12,ESE,112,2.0,5.0,1,0.00,,,-99.99,Weather View 32 v70,2013-07-26 05:40:00,
2013-07-26 01:50:00,80.0,-29.1,30.12,ESE,112,0.0,5.0,1,0.00,,,-99.99,Weather View 32 v70,2013-07-26 05:50:00,
2013-07-26 02:00:00,79.0,-29.7,30.11,ESE,112,1.0,5.0,1,0.00,,,-99.99,Weather View 32 v70,2013-07-26 06:00:00,
2013-07-26 02:10:00,80.0,-29.1,30.11,ESE,112,0.0,5.0,1,0.00,,,-99.99,Weather View 32 v70,2013-07-26 06:10:00,
2013-07-26 02:20:00,80.0,-29.1,30.11,ESE,112,2.0,6.0,1,0.00,,,-99.99,Weather View 32 v70,2013-07-26 06:20:00,
2013-07-26 02:30:00,80.0,-29.1,30.10,ESE,112,0.0,6.0,1,0.00,,,-99.99,Weather View 32 v70,2013-07-26 06:30:00,
2013-07-26 02:40:00,80.0,-29.1,30.10,ESE,112,0.0,6.0,1,0.00,,,-99.99,Weather View 32 v70,2013-07-26 06:40:00,
2013-07-26 02:50:00,80.0,-29.1,30.11,ESE,112,1.0,6.0,1,0.00,,,-99.99,Weather View 32 v70,2013-07-26 06:50:00,
2013-07-26 03:00:00,80.0,-29.1,30.11,ESE,112,0.0,6.0,1,0.00,,,-99.99,Weather View 32 v70,2013-07-26 07:00:00,
2013-07-26 03:10:00,80.0,-29.1,30.10,ESE,112,3.0,6.0,1,0.00,,,-99.99,Weather View 32 v70,2013-07-26 07:10:00,
2013-07-26 03:20:00,80.0,-29.1,30.10,ESE,112,0.0,6.0,1,0.00,,,-99.99,Weather View 32 v70,2013-07-26 07:20:00,
2013-07-26 03:30:00,80.0,-29.1,30.10,ESE,112,0.0,6.0,1,0.00,,,-99.99,Weather View 32 v70,2013-07-26 07:30:00,
2013-07-26 03:40:00,79.0,-29.7,30.11,ESE,112,0.0,6.0,1,0.00,,,-99.99,Weather View 32 v70,2013-07-26 07:40:00,
2013-07-26 03:50:00,79.0,-29.7,30.11,ESE,112,0.0,5.0,1,0.00,,,-99.99,Weather View 32 v70,2013-07-26 07:50:00,
2013-07-26 04:00:00,79.0,-29.7,30.11,ESE,112,5.0,6.0,1,0.00,,,-99.99,Weather View 32 v70,2013-07-26 08:00:00,
2013-07-26 04:10:00,79.0,-29.7,30.11,ESE,112,3.0,6.0,1,0.00,,,-99.99,Weather View 32 v70,2013-07-26 08:10:00,
2013-07-26 04:20:00,79.0,-29.7,30.11,ESE,112,0.0,6.0,1,0.00,,,-99.99,Weather View 32 v70,2013-07-26 08:20:00,
2013-07-26 04:30:00,79.0,-29.7,30.11,ESE,112,2.0,6.0,1,0.00,,,-99.99,Weather View 32 v70,2013-07-26 08:30:00,
2013-07-26 04:40:00,79.0,-29.7,30.11,ESE,112,4.0,6.0,1,0.00,,,-99.99,Weather View 32 v70,2013-07-26 08:40:00,
2013-07-26 04:50:00,80.0,-29.1,30.12,ESE,112,6.0,6.0,1,0.00,,,-99.99,Weather View 32 v70,2013-07-26 08:50:00,
2013-07-26 05:00:00,80.0,-29.1,30.11,ESE,112,1.0,7.0,1,0.00,,,-99.99,Weather View 32 v70,2013-07-26 09:00:00,
2013-07-26 05:10:00,80.0,-29.1,30.11,ESE,112,7.0,8.0,1,0.00,,,-99.99,Weather View 32 v70,2013-07-26 09:10:00,
2013-07-26 05:20:00,80.0,-29.1,30.11,ESE,112,2.0,8.0,1,0.00,,,-99.99,Weather View 32 v70,2013-07-26 09:20:00,
2013-07-26 05:30:00,80.0,-29.1,30.11,ESE,112,2.0,9.0,1,0.00,,,-99.99,Weather View 32 v70,2013-07-26 09:30:00,
2013-07-26 05:40:00,80.0,-29.1,30.11,ESE,112,1.0,9.0,1,0.00,,,-99.99,Weather View 32 v70,2013-07-26 09:40:00,
2013-07-26 05:50:00,81.0,-28.5,30.12,ESE,112,2.0,9.0,1,0.00,,,-99.99,Weather View 32 v70,2013-07-26 09:50:00,
2013-07-26 06:00:00,81.0,-28.5,30.11,ESE,112,3.0,9.0,1,0.00,,,-99.99,Weather View 32 v70,2013-07-26 10:00:00,
2013-07-26 06:10:00,82.0,-27.9,30.11,ESE,112,0.0,9.0,1,0.00,,,-99.99,Weather View 32 v70,2013-07-26 10:10:00,
2013-07-26 06:20:00,83.0,-27.3,30.12,ESE,112,2.0,9.0,1,0.00,,,-99.99,Weather View 32 v70,2013-07-26 10:20:00,
2013-07-26 06:30:00,83.0,-27.3,30.12,ESE,112,0.0,6.0,1,0.00,,,-99.99,Weather View 32 v70,2013-07-26 10:30:00,
2013-07-26 06:40:00,83.0,-27.3,30.12,ESE,112,3.0,6.0,1,0.00,,,-99.99,Weather View 32 v70,2013-07-26 10:40:00,
2013-07-26 06:50:00,83.0,-27.3,30.12,ESE,112,2.0,6.0,1,0.00,,,-99.99,Weather View 32 v70,2013-07-26 10:50:00,
2013-07-26 07:00:00,83.0,-27.3,30.12,East,90,0.0,6.0,1,0.00,,,-99.99,Weather View 32 v70,2013-07-26 11:00:00,
2013-07-26 07:10:00,83.0,-27.3,30.12,East,90,2.0,7.0,1,0.00,,,-99.99,Weather View 32 v70,2013-07-26 11:10:00,
2013-07-26 07:20:00,83.0,-27.3,30.13,East,90,4.0,7.0,1,0.00,,,-99.99,Weather View 32 v70,2013-07-26 11:20:00,
2013-07-26 07:30:00,83.0,-27.3,30.14,East,90,3.0,7.0,1,0.00,,,-99.99,Weather View 32 v70,2013-07-26 11:30:00,
2013-07-26 07:40:00,83.0,-27.3,30.13,ESE,112,3.0,7.0,1,0.00,,,-99.99,Weather View 32 v70,2013-07-26 11:40:00,
2013-07-26 07:50:00,82.0,-27.9,30.13,East,90,2.0,7.0,1,0.00,,,-99.99,Weather View 32 v70,2013-07-26 11:50:00,
2013-07-26 08:00:00,83.0,-27.3,30.13,East,90,3.0,8.0,1,0.00,,,-99.99,Weather View 32 v70,2013-07-26 12:00:00,
2013-07-26 08:10:00,84.0,-26.7,30.13,East,90,6.0,8.0,1,0.00,,,-99.99,Weather View 32 v70,2013-07-26 12:10:00,
2013-07-26 08:20:00,84.0,-26.7,30.12,ESE,112,0.0,9.0,1,0.00,,,-99.99,Weather View 32 v70,2013-07-26 12:20:00,
2013-07-26 08:30:00,84.0,-26.7,30.12,East,90,7.0,10.0,1,0.00,,,-99.99,Weather View 32 v70,2013-07-26 12:30:00,
2013-07-26 08:40:00,83.0,-27.3,30.13,ESE,112,3.0,10.0,1,0.00,,,-99.99,Weather View 32 v70,2013-07-26 12:40:00,
2013-07-26 08:50:00,84.0,-26.7,30.12,ESE,112,3.0,10.0,1,0.00,,,-99.99,Weather View 32 v70,2013-07-26 12:50:00,
2013-07-26 09:00:00,84.0,-26.7,30.12,ESE,112,3.0,10.0,1,0.00,,,-99.99,Weather View 32 v70,2013-07-26 13:00:00,
2013-07-26 09:10:00,85.0,-26.1,30.12,ESE,112,3.0,10.0,1,0.00,,,-99.99,Weather View 32 v70,2013-07-26 13:10:00,
2013-07-26 09:20:00,85.0,-26.1,30.12,East,90,8.0,11.0,1,0.00,,,-99.99,Weather View 32 v70,2013-07-26 13:20:00,
2013-07-26 09:30:00,85.0,-26.1,30.12,East,90,7.0,11.0,1,0.00,,,-99.99,Weather View 32 v70,2013-07-26 13:30:00,
2013-07-26 09:40:00,84.0,-26.7,30.13,ESE,112,2.0,12.0,1,0.00,,,-99.99,Weather View 32 v70,2013-07-26 13:40:00,
2013-07-26 09:50:00,84.0,-26.7,30.13,ESE,112,5.0,12.0,1,0.00,,,-99.99,Weather View 32 v70,2013-07-26 13:50:00,
2013-07-26 10:00:00,85.0,-26.1,30.12,ESE,112,6.0,12.0,1,0.00,,,-99.99,Weather View 32 v70,2013-07-26 14:00:00,
2013-07-26 10:10:00,85.0,-26.1,30.13,East,90,4.0,12.0,1,0.00,,,-99.99,Weather View 32 v70,2013-07-26 14:10:00,
2013-07-26 10:20:00,84.0,-26.7,30.13,ESE,112,5.0,12.0,1,0.00,,,-99.99,Weather View 32 v70,2013-07-26 14:20:00,
2013-07-26 10:30:00,85.0,-26.1,30.12,ESE,112,7.0,12.0,1,0.00,,,-99.99,Weather View 32 v70,2013-07-26 14:30:00,
2013-07-26 10:40:00,84.0,-26.7,30.12,ESE,112,4.0,12.0,1,0.00,,,-99.99,Weather View 32 v70,2013-07-26 14:40:00,
2013-07-26 10:50:00,84.0,-26.7,30.12,East,90,7.0,12.0,1,0.00,,,-99.99,Weather View 32 v70,2013-07-26 14:50:00,
2013-07-26 11:00:00,84.0,-26.7,30.12,ESE,112,9.0,13.0,1,0.00,,,-99.99,Weather View 32 v70,2013-07-26 15:00:00,
2013-07-26 11:10:00,84.0,-26.7,30.12,East,90,4.0,13.0,1,0.00,,,-99.99,Weather View 32 v70,2013-07-26 15:10:00,
2013-07-26 11:20:00,84.0,-26.7,30.12,East,90,9.0,14.0,1,0.00,,,-99.99,Weather View 32 v70,2013-07-26 15:20:00,
2013-07-26 11:30:00,84.0,-26.7,30.12,East,90,4.0,14.0,1,0.00,,,-99.99,Weather View 32 v70,2013-07-26 15:30:00,
2013-07-26 11:40:00,84.0,-26.7,30.12,ESE,112,1.0,14.0,1,0.00,,,-99.99,Weather View 32 v70,2013-07-26 15:40:00,
2013-07-26 11:50:00,84.0,-26.7,30.12,ESE,112,3.0,14.0,1,0.00,,,-99.99,Weather View 32 v70,2013-07-26 15:50:00,
2013-07-26 12:00:00,85.0,-26.1,30.12,ESE,112,5.0,14.0,1,0.00,,,-99.99,Weather View 32 v70,2013-07-26 16:00:00,
2013-07-26 12:10:00,85.0,-26.1,30.11,ESE,112,7.0,14.0,1,0.00,,,-99.99,Weather View 32 v70,2013-07-26 16:10:00,
2013-07-26 12:20:00,85.0,-26.1,30.11,ESE,112,6.0,14.0,1,0.00,,,-99.99,Weather View 32 v70,2013-07-26 16:20:00,
2013-07-26 12:30:00,86.0,-25.5,30.10,ESE,112,10.0,14.0,1,0.00,,,-99.99,Weather View 32 v70,2013-07-26 16:30:00,
2013-07-26 12:40:00,85.0,-26.1,30.10,ESE,112,7.0,14.0,1,0.00,,,-99.99,Weather View 32 v70,2013-07-26 16:40:00,
2013-07-26 12:50:00,85.0,-26.1,30.10,ESE,112,3.0,12.0,1,0.00,,,-99.99,Weather View 32 v70,2013-07-26 16:50:00,
2013-07-26 13:00:00,84.0,-26.7,30.10,East,90,7.0,12.0,1,0.00,,,-99.99,Weather View 32 v70,2013-07-26 17:00:00,
2013-07-26 13:10:00,84.0,-26.7,30.10,ESE,112,8.0,12.0,1,0.00,,,-99.99,Weather View 32 v70,2013-07-26 17:10:00,
2013-07-26 13:20:00,84.0,-26.7,30.10,ESE,112,7.0,12.0,1,0.00,,,-99.99,Weather View 32 v70,2013-07-26 17:20:00,
2013-07-26 13:30:00,84.0,45.3,30.10,ESE,112,7.0,12.0,26,0.00,,,-99.99,Weather View 32 v70,2013-07-26 17:30:00,
2013-07-26 13:50:00,82.0,-27.9,30.10,ESE,112,11.0,13.0,1,0.01,,,-99.99,Weather View 32 v70,2013-07-26 17:50:00,
2013-07-26 14:20:00,83.0,40.1,30.10,ESE,112,4.0,13.0,22,0.01,,,-99.99,Weather View 32 v70,2013-07-26 18:20:00,
2013-07-26 14:30:00,83.0,-27.3,30.10,ESE,112,5.0,13.0,1,0.02,,,-99.99,Weather View 32 v70,2013-07-26 18:30:00,
2013-07-26 14:50:00,80.0,-29.1,30.10,ESE,112,6.0,13.0,1,0.03,,,-99.99,Weather View 32 v70,2013-07-26 18:50:00,
2013-07-26 15:00:00,80.0,-29.1,30.11,ESE,112,0.0,13.0,1,0.07,,,-99.99,Weather View 32 v70,2013-07-26 19:00:00,
2013-07-26 15:02:00,84.0,-26.7,30.10,ESE,112,2.0,13.0,1,0.01,,,-99.99,Weather View 32 v70,2013-07-26 19:02:00,
2013-07-26 15:10:00,80.0,-29.1,30.11,ESE,112,0.0,13.0,1,0.08,,,-99.99,Weather View 32 v70,2013-07-26 19:10:00,
2013-07-26 15:20:00,80.0,-29.1,30.11,ENE,67,0.0,13.0,1,0.08,,,-99.99,Weather View 32 v70,2013-07-26 19:20:00,
2013-07-26 15:22:00,82.0,17.5,30.10,ESE,112,9.0,13.0,9,0.01,,,-99.99,Weather View 32 v70,2013-07-26 19:22:00,
2013-07-26 15:30:00,80.0,-29.1,30.12,ESE,112,2.0,12.0,1,0.07,,,-99.99,Weather View 32 v70,2013-07-26 19:30:00,
2013-07-26 15:32:00,83.0,15.5,30.10,ESE,112,2.0,13.0,8,0.01,,,-99.99,Weather View 32 v70,2013-07-26 19:32:00,
2013-07-26 15:40:00,81.0,-28.5,30.10,ESE,112,3.0,10.0,1,0.05,,,-99.99,Weather View 32 v70,2013-07-26 19:40:00,
2013-07-26 15:50:00,81.0,-28.5,30.10,ESE,112,3.0,12.0,1,0.05,,,-99.99,Weather View 32 v70,2013-07-26 19:50:00,
2013-07-26 16:00:00,81.0,-28.5,30.10,ESE,112,4.0,12.0,1,0.01,,,-99.99,Weather View 32 v70,2013-07-26 20:00:00,
2013-07-26 16:02:00,81.0,-28.5,30.10,ESE,112,6.0,13.0,1,0.03,,,-99.99,Weather View 32 v70,2013-07-26 20:02:00,
2013-07-26 16:10:00,81.0,-28.5,30.10,ESE,112,6.0,12.0,1,0.00,,,-99.99,Weather View 32 v70,2013-07-26 20:10:00,
2013-07-26 16:30:00,81.0,-28.5,30.10,ESE,112,0.0,12.0,1,0.00,,,-99.99,Weather View 32 v70,2013-07-26 20:30:00,
2013-07-26 16:40:00,82.0,-27.9,30.10,ESE,112,2.0,12.0,1,0.00,,,-99.99,Weather View 32 v70,2013-07-26 20:40:00,
2013-07-26 17:00:00,83.0,-27.3,30.09,ESE,112,4.0,10.0,1,0.00,,,-99.99,Weather View 32 v70,2013-07-26 21:00:00,
2013-07-26 17:20:00,82.0,-27.9,30.09,ESE,112,8.0,11.0,1,0.00,,,-99.99,Weather View 32 v70,2013-07-26 21:20:00,
2013-07-26 17:42:00,81.0,-28.5,30.09,ESE,112,6.0,12.0,1,0.00,,,-99.99,Weather View 32 v70,2013-07-26 21:42:00,
2013-07-26 18:12:00,83.0,-27.3,30.09,ESE,112,4.0,10.0,1,0.00,,,-99.99,Weather View 32 v70,2013-07-26 22:12:00,
2013-07-26 18:30:00,81.0,-28.5,30.10,East,90,2.0,10.0,1,0.00,,,-99.99,Weather View 32 v70,2013-07-26 22:30:00,
2013-07-26 18:32:00,83.0,-27.3,30.09,ESE,112,2.0,11.0,1,0.00,,,-99.99,Weather View 32 v70,2013-07-26 22:32:00,
2013-07-26 18:52:00,82.0,-27.9,30.10,ESE,112,2.0,11.0,1,0.00,,,-99.99,Weather View 32 v70,2013-07-26 22:52:00,
2013-07-26 19:00:00,81.0,-28.5,30.11,ESE,112,3.0,10.0,1,0.00,,,-99.99,Weather View 32 v70,2013-07-26 23:00:00,
2013-07-26 19:02:00,82.0,-27.9,30.10,ESE,112,4.0,11.0,1,0.00,,,-99.99,Weather View 32 v70,2013-07-26 23:02:00,
2013-07-26 19:12:00,82.0,-27.9,30.09,East,90,1.0,11.0,1,0.00,,,-99.99,Weather View 32 v70,2013-07-26 23:12:00,
2013-07-26 19:20:00,81.0,-28.5,30.11,ESE,112,2.0,10.0,1,0.00,,,-99.99,Weather View 32 v70,2013-07-26 23:20:00,
2013-07-26 19:22:00,82.0,-27.9,30.10,ESE,112,1.0,11.0,1,0.00,,,-99.99,Weather View 32 v70,2013-07-26 23:22:00,
2013-07-26 19:32:00,81.0,-28.5,30.10,East,90,2.0,10.0,1,0.00,,,-99.99,Weather View 32 v70,2013-07-26 23:32:00,
2013-07-26 19:42:00,81.0,-28.5,30.10,East,90,3.0,9.0,1,0.00,,,-99.99,Weather View 32 v70,2013-07-26 23:42:00,
2013-07-26 19:50:00,81.0,-28.5,30.12,ESE,112,3.0,9.0,1,0.00,,,-99.99,Weather View 32 v70,2013-07-26 23:50:00,
2013-07-26 20:02:00,81.0,-28.5,30.10,ESE,112,3.0,10.0,1,0.00,,,-99.99,Weather View 32 v70,2013-07-27 00:02:00,
2013-07-26 20:10:00,81.0,-28.5,30.12,East,90,4.0,9.0,1,0.00,,,-99.99,Weather View 32 v70,2013-07-27 00:10:00,
2013-07-26 20:12:00,81.0,-28.5,30.10,East,90,3.0,10.0,1,0.00,,,-99.99,Weather View 32 v70,2013-07-27 00:12:00,
2013-07-26 20:32:00,81.0,-28.5,30.11,ESE,112,0.0,10.0,1,0.00,,,-99.99,Weather View 32 v70,2013-07-27 00:32:00,
2013-07-26 20:52:00,81.0,-28.5,30.12,ESE,112,2.0,9.0,1,0.00,,,-99.99,Weather View 32 v70,2013-07-27 00:52:00,
2013-07-26 21:02:00,81.0,-28.5,30.12,East,90,3.0,9.0,1,0.00,,,-99.99,Weather View 32 v70,2013-07-27 01:02:00,
2013-07-26 21:22:00,81.0,-28.5,30.12,ESE,112,3.0,9.0,1,0.00,,,-99.99,Weather View 32 v70,2013-07-27 01:22:00,
2013-07-26 21:42:00,81.0,-28.5,30.12,ESE,112,2.0,9.0,1,0.00,,,-99.99,Weather View 32 v70,2013-07-27 01:42:00,
2013-07-26 21:52:00,81.0,-28.5,30.12,ESE,112,4.0,9.0,1,0.00,,,-99.99,Weather View 32 v70,2013-07-27 01:52:00,
2013-07-26 22:02:00,81.0,-28.5,30.12,ESE,112,7.0,9.0,1,0.00,,,-99.99,Weather View 32 v70,2013-07-27 02:02:00,
2013-07-26 22:12:00,81.0,-28.5,30.12,East,90,5.0,11.0,1,0.00,,,-99.99,Weather View 32 v70,2013-07-27 02:12:00,
2013-07-26 22:22:00,81.0,-28.5,30.13,East,90,2.0,11.0,1,0.00,,,-99.99,Weather View 32 v70,2013-07-27 02:22:00,
2013-07-26 22:32:00,81.0,-28.5,30.13,ESE,112,3.0,12.0,1,0.00,,,-99.99,Weather View 32 v70,2013-07-27 02:32:00,
2013-07-26 22:40:00,81.0,-28.5,30.14,ESE,112,1.0,11.0,1,0.00,,,-99.99,Weather View 32 v70,2013-07-27 02:40:00,
2013-07-26 22:42:00,81.0,-28.5,30.14,ESE,112,2.0,12.0,1,0.00,,,-99.99,Weather View 32 v70,2013-07-27 02:42:00,
2013-07-26 22:50:00,81.0,-28.5,30.14,ESE,112,2.0,11.0,1,0.00,,,-99.99,Weather View 32 v70,2013-07-27 02:50:00,
2013-07-26 22:52:00,81.0,-28.5,30.14,ESE,112,2.0,12.0,1,0.00,,,-99.99,Weather View 32 v70,2013-07-27 02:52:00,
2013-07-26 23:00:00,80.0,-29.1,30.13,ESE,112,2.0,11.0,1,0.00,,,-99.99,Weather View 32 v70,2013-07-27 03:00:00,
2013-07-26 23:02:00,81.0,-28.5,30.14,East,90,5.0,12.0,1,0.00,,,-99.99,Weather View 32 v70,2013-07-27 03:02:00,
2013-07-26 23:10:00,80.0,-29.1,30.13,ESE,112,4.0,11.0,1,0.00,,,-99.99,Weather View 32 v70,2013-07-27 03:10:00,
2013-07-26 23:12:00,81.0,-28.5,30.14,ESE,112,5.0,12.0,1,0.00,,,-99.99,Weather View 32 v70,2013-07-27 03:12:00,
2013-07-26 23:20:00,80.0,-29.1,30.13,East,90,0.0,11.0,1,0.00,,,-99.99,Weather View 32 v70,2013-07-27 03:20:00,
2013-07-26 23:22:00,81.0,-28.5,30.14,ESE,112,6.0,12.0,1,0.00,,,-99.99,Weather View 32 v70,2013-07-27 03:22:00,
2013-07-26 23:30:00,80.0,-29.1,30.14,ESE,112,1.0,12.0,1,0.00,,,-99.99,Weather View 32 v70,2013-07-27 03:30:00,
2013-07-26 23:32:00,81.0,-28.5,30.14,ESE,112,4.0,10.0,1,0.00,,,-99.99,Weather View 32 v70,2013-07-27 03:32:00,
2013-07-26 23:40:00,81.0,-28.5,30.12,ESE,112,8.0,12.0,1,0.00,,,-99.99,Weather View 32 v70,2013-07-27 03:40:00,
2013-07-26 23:42:00,81.0,-28.5,30.14,ESE,112,0.0,10.0,1,0.00,,,-99.99,Weather View 32 v70,2013-07-27 03:42:00,
2013-07-26 23:50:00,80.0,-29.1,30.12,ESE,112,3.0,12.0,1,0.00,,,-99.99,Weather View 32 v70,2013-07-27 03:50:00,
2013-07-26 23:52:00,81.0,-28.5,30.14,ESE,112,6.0,10.0,1,0.00,,,-99.99,Weather View 32 v70,2013-07-27 03:52:00,